Hourly Data Report for October 20, 2014

All times are specified in Local Standard Time (LST). Add 1 hour to adjust for Daylight Saving Time where and when it is observed.

PETAWAWA AWOS 2
ONTARIO

45°57'00.000" N
77°19'00.000" W
130.10 m
6106396
71625
YWA

Download Data

Hourly Data (October 2014)
Hourly Data Report for October 20, 2014
Temp Definition
°C
Dew Point Temp Definition
°C
Rel Hum Definition
%
Wind Dir Definition
10's deg

Wind Spd Definition
km/h
Visibility Definition
km
Stn Press Definition
kPa
Hmdx Definition


Wind Chill Definition


Weather Definition


TIME
00:00
01:00
02:00
03:00 0.9 -3.9 70 17 6 14.5 99.86     LegendNANA
04:00 2.5 -3.6 64 17 6 14.5 99.83     LegendNANA
05:00 2.6 -2.9 67 17 9 14.5 99.79     LegendNANA
06:00 3.0 -1.5 72 13 13 14.5 99.75     LegendNANA
07:00 2.7 -1.2 76 13 7 14.5 99.74     Rain
08:00 2.7 -0.9 77 16 7 14.5 99.80     Rain
09:00 3.3 -0.5 76 12 9 14.5 99.78     LegendNANA
10:00 3.6 -0.5 74 13 11 14.5 99.75     Rain
11:00 4.0 0.0 75 13 9 14.5 99.68     LegendNANA
12:00 4.8 0.5 74 12 15 14.5 99.59     LegendNANA
13:00 5.3 0.7 72 12 9 14.5 99.58     LegendNANA
14:00 5.5 0.7 71 13 11 14.5 99.52     LegendNANA
15:00 6.1 1.1 70 13 7 14.5 99.52     LegendNANA
16:00 5.5 2.3 80 12 15 11.3 99.54     Rain
17:00 5.3 2.9 84 11 11 4.0 99.55     Drizzle
18:00 5.5 3.2 85 11 11 8.0 99.55     Drizzle
19:00 5.7 3.4 85 11 11 3.5 99.58     Drizzle
20:00 5.8 3.8 87 10 13 2.7 99.59     Drizzle
21:00 6.0 3.8 86 10 9 5.6 99.59     Rain
22:00 5.8 3.6 86 11 9 8.0 99.61     Rain
23:00 5.7 3.2 84 9 9 8.0 99.61     Drizzle

Notes on Data Quality.

Legend

  • E = Estimated
  • M = Missing
  • NA = Not Available
  • ‡ = Partner data that is not subject to review by the National Climate Archives
Date modified: